This is the latest recevied weather packets stored in our database for station/object KY0TEQ-13. If no packets are shown the sender has not sent any weather packets the latest 10 day(s).
| Time | Temp. | Humidity | Pressure | Rain* | Wind** | Luminosity | Snow |
|---|---|---|---|---|---|---|---|
| 1777822739 | 12.22° C | 32% | 1307.8 hPa | 0 mm | - | 457 W/m² | - |
| 1777822436 | 12.22° C | 31% | 1307.9 hPa | 0 mm | - | 471 W/m² | - |
| 1777822134 | 12.78° C | 31% | 1307.9 hPa | 0 mm | - | 452 W/m² | - |
| 1777821831 | 12.22° C | 32% | 1308 hPa | 0 mm | - | 432 W/m² | - |
| 1777821528 | 11.67° C | 32% | 1307.8 hPa | 0 mm | - | 423 W/m² | - |
| 1777821226 | 11.67° C | 33% | 1307.9 hPa | 0 mm | - | 303 W/m² | - |
| 1777820923 | 11.67° C | 32% | 1308 hPa | 0 mm | - | 403 W/m² | - |
| 1777820618 | 11.11° C | 35% | 1308 hPa | 0 mm | - | 374 W/m² | - |
| 1777820316 | 11.11° C | 32% | 1307.7 hPa | 0 mm | - | 320 W/m² | - |
| 1777820014 | 11.67° C | 33% | 1307.9 hPa | 0 mm | - | 327 W/m² | - |
| 1777819710 | 11.67° C | 31% | 1307.8 hPa | 0 mm | - | 307 W/m² | - |
| 1777819409 | 11.11° C | 32% | 1307.8 hPa | 0 mm | - | 283 W/m² | - |
| 1777819105 | 11.11° C | 33% | 1308 hPa | 0 mm | - | 195 W/m² | - |
| 1777818802 | 10° C | 33% | 1308.2 hPa | 0 mm | - | 250 W/m² | - |
| 1777818499 | 10.56° C | 32% | 1308 hPa | 0 mm | - | 219 W/m² | - |
| 1777818196 | 11.11° C | 31% | 1308 hPa | 0 mm | - | 208 W/m² | - |
| 1777817892 | 10° C | 32% | 1308.2 hPa | 0 mm | - | 213 W/m² | - |
| 1777817590 | 9.44° C | 35% | 1308 hPa | 0 mm | - | 198 W/m² | - |
| 1777817286 | 8.89° C | 35% | 1308 hPa | 0 mm | - | 137 W/m² | - |
| 1777816983 | 8.89° C | 36% | 1308 hPa | 0 mm | - | 133 W/m² | - |
| 1777816679 | 8.33° C | 39% | 1307.8 hPa | 0 mm | - | 109 W/m² | - |
| 1777816376 | 8.33° C | 37% | 1308 hPa | 0 mm | - | 104 W/m² | - |
| 1777816074 | 8.33° C | 37% | 1308 hPa | 0 mm | - | 105 W/m² | - |
| 1777815771 | 7.78° C | 39% | 1308 hPa | 0 mm | - | 140 W/m² | - |
| 1777815469 | 7.78° C | 40% | 1308 hPa | 0 mm | - | 119 W/m² | - |
* Rain latest hour (hover to see other rain measurements)
** Current wind speed in m/s (hover to see current wind gust speed)